DL4PY-13 Weather Reports


Display with metric or nautical units.
time (UTC)temp
F
wind
direction
speed
MPH
gust
MPH
rain 1hr
in
rain 24hr
in
rain mn
in
humidity
%
barometer
mb
20260506123707 52 37 3.0 15.0 0.00 0.29 0.22 89 1007.4
20260506122710 53 5 1.0 15.0 0.00 0.29 0.22 90 1007.4
20260506122222 53 5 0.0 15.0 0.00 0.29 0.22 89 1007.4
20260506122206 53 0 1.0 15.0 0.00 0.29 0.22 89 1007.5
20260506121708 53 59 1.0 15.0 0.00 0.29 0.22 90 1007.5
20260506121206 53 0 1.0 15.0 0.00 0.29 0.22 91 1007.5
20260506120722 53 290 0.0 15.0 0.00 0.29 0.22 91 1007.4
20260506115707 53 290 2.0 15.0 0.01 0.29 0.22 90 1007.3
20260506115658 53 286 1.0 15.0 0.01 0.29 0.22 90 1007.4
20260506114206 54 5 2.0 15.0 0.01 0.29 0.22 90 1007.2
20260506114157 54 5 2.0 15.0 0.01 0.29 0.22 90 1007.2
20260506112706 54 0 0.0 15.0 0.02 0.29 0.22 89 1007.2
20260506112657 54 0 0.0 15.0 0.02 0.29 0.22 89 1007.2
20260506111157 54 9 2.0 15.0 0.02 0.29 0.22 92 1007.1
20260506110707 54 35 1.0 15.0 0.02 0.29 0.22 92 1007.0
20260506110207 54 123 0.0 15.0 0.02 0.29 0.22 92 1007.1
20260506105707 54 122 0.0 15.0 0.02 0.28 0.21 93 1007.0
20260506105657 54 123 1.0 15.0 0.02 0.28 0.21 93 1007.0
20260506104207 53 213 0.0 15.0 0.03 0.28 0.21 93 1006.9
20260506104158 53 213 0.0 15.0 0.03 0.28 0.21 93 1006.9
20260506103706 53 213 0.0 15.0 0.04 0.28 0.21 93 1006.9
20260506102706 53 212 0.0 15.0 0.03 0.28 0.20 93 1006.8
20260506102656 53 212 0.0 15.0 0.03 0.28 0.20 93 1006.8
20260506102207 53 213 0.0 15.0 0.03 0.28 0.20 93 1006.9
20260506101707 53 213 0.0 15.0 0.03 0.28 0.20 93 1006.8
20260506101207 53 213 0.0 15.0 0.03 0.28 0.20 93 1006.8
20260506101157 53 213 0.0 15.0 0.03 0.28 0.20 93 1006.8
20260506095658 53 211 0.0 15.0 0.02 0.27 0.20 93 1006.7
20260506094708 54 211 0.0 15.0 0.02 0.27 0.20 93 1006.6
20260506094206 54 211 0.0 15.0 0.01 0.25 0.18 92 1006.6
20260506094156 54 211 0.0 15.0 0.01 0.25 0.18 92 1006.6
20260506092656 55 205 0.0 15.0 0.00 0.24 0.17 92 1006.4
20260506092207 55 194 0.0 15.0 0.00 0.24 0.17 92 1006.3
20260506091707 55 232 2.0 15.0 0.00 0.24 0.17 92 1006.3
20260506091157 54 232 3.0 15.0 0.00 0.24 0.17 92 1006.3
20260506085706 54 229 1.0 15.0 0.00 0.24 0.17 93 1006.2
20260506085656 54 227 0.0 15.0 0.00 0.24 0.17 93 1006.2
20260506084707 54 242 2.0 15.0 0.00 0.24 0.17 93 1006.2
20260506084206 53 241 2.0 15.0 0.00 0.24 0.17 93 1006.2
20260506084157 53 241 2.0 15.0 0.00 0.24 0.17 93 1006.2
20260506083205 53 237 5.0 15.0 0.00 0.24 0.17 93 1006.2
20260506082657 54 218 5.0 15.0 0.00 0.24 0.17 94 1006.1
20260506082206 53 241 1.0 15.0 0.00 0.24 0.17 94 1006.2
20260506081706 53 250 4.0 15.0 0.00 0.24 0.17 93 1006.2